Regional Weather Roundup
Issued by NWS Charleston, SC

Current Version | Previous Version | Text Only | Print | Product List | Glossary Off
Versions: 1 2 3 4 5 6 7 8 9 10 11 12 13 14 15 16 17 18 19 20 21 22 23 24 25 26 27 28 29 30 31 32 33 34 35 36 37 38 39 40 41 42 43 44 45 46 47 48 49 50
000 ASUS42 KCHS 231612 RWRCHS REGIONAL WEATHER ROUNDUP NATIONAL WEATHER SERVICE CHARLESTON SC 1100 AM EST MON JAN 23 2017 NOTE: "FAIR" INDICATES FEW OR NO CLOUDS BELOW 12,000 FEET WITH NO SIGNIFICANT WEATHER AND/OR OBSTRUCTIONS TO VISIBILITY. NOT ALL STATIONS ARE QUALITY CONTROLLED. USE DATA WITH CAUTION... ESPECIALLY DEWPOINT OBSERVATIONS. SCZ027-030-031-034>040-042>050-231700- ...SOUTHEAST SOUTH CAROLINA... CITY SKY/WX TMP DP RH WIND PRES REMARKS N CHARLESTON PTSUNNY 55 51 86 SW13G18 29.32S WATERFRONT PRK N/A 54 52 93 SW7 29.31S MOUNT PLEASANT PTSUNNY 55 52 88 SW7 29.32F JOHNS ISLAND DRIZZLE 55 52 88 SW10 29.32F PINOPOLIS NOT AVBL MONCKS CORNER CLOUDY 52 50 93 SW6 29.32S SUMMERVILLE CLOUDY 54 54 100 SW7 29.32F BEAUFORT MCAS CLOUDY 54 51 90 SW13 29.32S BEAUFORT ARPT CLOUDY 54 50 87 SW8 29.32F HILTON HEAD IS CLOUDY 54 52 94 SW10G18 29.33F WALTERBORO CLOUDY 52 50 93 SW8 29.33S ALLENDALE LGT RAIN 52 52 100 CALM 29.32R ...SOUTHERN MIDLANDS AND PEE DEE... CITY SKY/WX TMP DP RH WIND PRES REMARKS GEORGETOWN CLOUDY 57 46 67 SW10G16 29.32F KINGSTREE RAIN 52 46 82 S8G16 29.32R ORANGEBURG LGT RAIN 52 50 93 W5 29.31R FOG BARNWELL CLOUDY 55 52 88 SW7 29.32R AIKEN CLOUDY 54 46 76 W8 29.34R MANNING DRIZZLE 52 41 66 SW6 29.32R COLUMBIA CLOUDY 55 48 77 SW7 29.29S SUMTER CLOUDY 53 50 90 SW8 29.28S FLORENCE LGT RAIN 56 49 77 SW9 29.31S MYRTLE BEACH SUNNY 63 48 59 SW12 29.32S N MYRTLE BEACH MOSUNNY 59 53 80 S9 29.30F $$ GAZ063-065-086>088-099>101-113>116-118-119-134>141-150-231700- ...SOUTHEAST GEORGIA... CITY SKY/WX TMP DP RH WIND PRES REMARKS SAVANNAH ARPT CLOUDY 55 50 83 W15 29.34R HUNTER AAF CLOUDY 54 54 100 SW13 29.32R FORT STEWART CLOUDY 55 50 83 W13G22 29.34R STATESBORO CLOUDY 55 55 97 W10G17 29.35R SYLVANIA CLOUDY N/A N/A N/A W12 29.34R CLAXTON CLOUDY N/A N/A N/A SW8G16 29.36R ...CSRA...CENTRAL AND FAR SOUTHEAST GEORGIA... CITY SKY/WX TMP DP RH WIND PRES REMARKS THOMSON PTSUNNY 57 51 80 W12 29.37R AUGUSTA-BUSH PTSUNNY 58 48 69 W8 29.32R AUGUSTA-DANIEL PTSUNNY 56 46 69 VRB3 29.32S SWAINSBORO CLOUDY 55 50 82 MISG 29.37R VIDALIA CLOUDY 57 54 88 NW14G21 29.38R EASTMAN CLOUDY 56 44 63 W6 29.43R HAZLEHURST CLOUDY 59 52 78 W8 29.39R ALMA LGT RAIN 55 55 100 W9 29.41R FOG WAYCROSS RAIN 59 59 100 W16G24 29.42R JESUP CLOUDY 61 50 67 W15G25 29.38R BAXLEY CLOUDY 59 57 94 W16G26 29.39R BRUNSWICK PTSUNNY 63 54 72 W26 29.40R SAINT SIMONS PTSUNNY 60 49 66 W17G33 29.38R $$ SCZ027-028-034-036>038-045-046-048>050-GAZ119-141-231700- ...LAKE AND SUPPLEMENTAL COASTAL OBSERVATIONS... STATION/POSITION TIME TEMP WIND PRES WAVE SWELL AIR SEA DIR/SP/G HT/PER HT/PER/DIR (UTC) (F) (DEG/KT/KT) (MB) (FT/S) (FT/S/D) WINYAH BAY 1445 60 220/ 12 992.0 LAKE MURRAY 1520 52 230/ 6/ 8 991.9R ACE BASIN NERRS 1445 53 220/ 3 993.0 FORT PULASKI 1548 59 250/ 12/ 20 993.4S SAPELO ISLAND 1500 58 240/ 21 994.0 $$ ANZ835-935-AMZ111-154-330-350-352-354-370-450-454-472-231700- ...C-MAN AND BUOY OBSERVATIONS... STATION/POSITION TIME TEMP WIND PRES WAVE SWELL AIR SEA DIR/SP/G HT/PER HT/PER/DIR (UTC) (F) (DEG/KT/KT) (MB) (FT/S) (FT/S/D) BUOY 41004 1450 63 67 220/ 17/ 21 992.6 8/10 7/170/10 BUOY 41008 1450 58 59 220/ 25/ 31 993.3 5/ 5 2/220/11 FOLLY BEACH CMAN 1500 54 230/ 16/ 21 993.7 CAPERS NEARSHORE 1508 57 56 230/ 14/ 17 992.9R FRIPP NEARSHORE 1508 54 58 250/ 17/ 25 993.3R STATION/POSITION TIME TEMP WIND PRES WAVE SWELL AIR SEA DIR/SP/G HT/PER HT/PER/DIR (UTC) (F) (DEG/KT/KT) (MB) (FT/S) (FT/S/D) 5E ST. MARYS GA 1530 62 N/A 4/ 4 2/ 90/13 FRYING PAN BUOY 1550 66 69 220/ 17/ 23 992.5F 10/10 7/170/10 BUOY 41025 1550 66 76 230/ 23/ 29 992.5F 7/11 5/100/11 CAPE LOOKOUT NC 1500 58 240/ 13/ 15 993.2 BUOY 41002 1550 70 71 180/ 12/ 16 995.2F 15/11 15/200/11 BUOY 41010 NOT AVBL ST AUGUSTINE FL 1600 63 64 270/ 18/ 24 998.9R $$

USA.gov is the U.S. government's official web portal to all federal, state and local government web resources and services.